This demonstration page uses our WeatherBlox Daily Observations layout. Learn more.

41.55636, -103.73856

Hourly Observations for April 16, 2015

Temp ( °F °C ) Dew Point ( °F °C ) Humidity (%) Winds ( mph kmh ) Pressure ( in mb ) Visibility ( mi km ) Precip ( " mm )
12:53 am 00:53 Cloudy 38 3.3 38 3.3 100 100 WNW 18 30 30.06 1018 10 16.0934 0 0.0254
1:12 am 01:12 Cloudy 36 2 36 2 100 100 NW 21 33 30.15 1021 10 16.0934 0 0
1:53 am 01:53 Cloudy 36 2.2 35 1.7 97 97 WNW 15 24 30.05 1018 10 16.0934 0 0.0254
2:29 am 02:29 Cloudy 37 2.8 36 2.2 96 96 NW 14 22 30.12 1020 10 16.0934 0 0
2:53 am 02:53 Cloudy 37 2.8 36 2.2 96 96 WNW 10 17 30.04 1017 10 16.0934 0 0
3:53 am 03:53 Cloudy 38 3.3 35 1.7 89 89 WNW 9 15 30.04 1017 10 16.0934 0 0
4:19 am 04:19 Cloudy 38 3.3 35 1.7 89 89 WNW 9 15 30.12 1020 10 16.0934 0 0
4:53 am 04:53 Cloudy 38 3.3 36 2.2 93 93 WNW 15 24 30.08 1019 10 16.0934 0 0
5:19 am 05:19 Cloudy 38 3.3 36 2.2 93 93 WNW 12 19 30.15 1021 10 16.0934 0 0
5:53 am 05:53 Cloudy 38 3.3 36 2.2 93 93 WNW 12 19 30.11 1020 10 16.0934 0 0
6:26 am 06:26 Cloudy 39 4 36 2 87 87 WNW 14 22 30.15 1021 10 16.0934 0 0
6:53 am 06:53 Cloudy 39 3.9 36 2.2 89 89 NW 14 22 30.13 1020 10 16.0934 0 0
7:53 am 07:53 Cloudy 40 4.4 37 2.8 89 89 NW 12 19 30.15 1021 10 16.0934 0 0
8:34 am 08:34 Cloudy with Light Rain 39 4 37 3 93 93 NW 12 19 30.18 1022 8 12.87472 0 0
8:53 am 08:53 Cloudy 41 5 38 3.3 89 89 NW 12 19 30.16 1021 9 14.48406 0 0.0254
9:22 am 09:22 Cloudy 41 5 37 3 87 87 NW 10 17 30.18 1022 10 16.0934 0 0
9:42 am 09:42 Cloudy 43 6 39 4 87 87 NW 8 13 30.15 1021 10 16.0934 0 0
9:53 am 09:53 Cloudy 43 6.1 39 3.9 86 86 NNW 9 15 30.16 1021 10 16.0934 0 0
10:08 am 10:08 Cloudy 43 6 39 4 87 87 NW 8 13 30.15 1021 10 16.0934 0 0
10:53 am 10:53 Cloudy 45 7.2 39 3.9 80 80 N 9 15 30.17 1022 10 16.0934 0 0
11:53 am 11:53 Cloudy 46 7.8 39 3.9 77 77 N 6 9 30.17 1022 10 16.0934 0 0
12:53 pm 12:53 Cloudy 48 8.9 40 4.4 74 74 NNE 12 19 30.14 1021 10 16.0934 0 0
1:53 pm 13:53 Cloudy 49 9.4 41 5 74 74 N 16 26 30.13 1020 10 16.0934 0 0
2:28 pm 14:28 Cloudy 48 9 39 4 71 71 NNE 13 20 30.09 1019 10 16.0934 0 0
2:53 pm 14:53 Cloudy 49 9.4 40 4.4 71 71 NE 12 19 30.14 1021 10 16.0934 0 0
3:49 pm 15:49 Cloudy with Light Rain 48 9 43 6 82 82 ENE 12 19 30.09 1019 4 6.43736 0.02 0.508
3:53 pm 15:53 Cloudy with Light Rain 49 9.4 42 5.6 77 77 undefined N/A 30.13 1020 7 11.26538 0.02 0.508
4:53 pm 16:53 Cloudy 50 10 42 5.6 74 74 NE 12 19 30.13 1020 10 16.0934 0 0.0254
5:53 pm 17:53 Cloudy with Light Rain 50 10 42 5.6 74 74 NE 9 15 30.13 1020 10 16.0934 0 0.0254
6:53 pm 18:53 Cloudy 48 8.9 43 6.1 83 83 WNW 5 7 30.14 1021 10 16.0934 0 0.0254
7:53 pm 19:53 Cloudy with Light Rain 46 7.8 45 7.2 96 96 W 7 11 30.15 1021 6 9.65604 0.01 0.254
8:53 pm 20:53 Cloudy with Light Rain 46 7.8 44 6.7 93 93 WNW 9 15 30.16 1021 6 9.65604 0.02 0.508
9:53 pm 21:53 Cloudy 46 7.8 44 6.7 93 93 W 6 9 30.16 1021 10 16.0934 0.01 0.254
10:53 pm 22:53 Cloudy 46 7.8 42 5.6 86 86 WSW 6 9 30.16 1021 10 16.0934 0 0
11:53 pm 23:53 Cloudy with Light Rain 46 7.8 41 5 83 83 WNW 5 7 30.15 1021 6 9.65604 0.01 0.254

Powered by AerisWeather